Header for Extended Forecast Station List Page

Search by: ID | Name | Date | Parm | Value | Avg | % Avg
Sort by: ID | Name | Date | Parm | Value | Avg | % Avg

Enter search or view all records.

Click on id for station plot
#IDNameDateParmValueAvg% Avg
0HWRI1BIG LOST-AT HOWELL RANCH NEAR CHILLY07-28-2014DISCHARGE (KAF)193653
1MACI1BIG LOST-MACKAY RESERVOIR NEAR MACKAY07-28-2014INFLOW (KAF)2824117
2HALI1BIG WOOD-AT HAILEY07-28-2014DISCHARGE (KAF)355465
3MAGI1BIG WOOD-MAGIC DAM07-28-2014INFLOW (KAF)122841
4BITM8BITTERROOT-NEAR MISSOULA07-28-2014DISCHARGE (KAF)273226121
5BONM8BLACKFOOT-NEAR BONNER07-28-2014DISCHARGE (KAF)15817192
6BIGI1BOISE-AT GLENWOOD BRIDGE07-28-2014DISCHARGE (KAF)10013177
7LUCI1BOISE-LUCKY PEAK DAM07-28-2014INFLOW (KAF)267MM
8PARI1BOISE-NEAR PARMA07-28-2014DISCHARGE (KAF)17122178
9HOTI1BRUNEAU-NEAR HOT SPRINGS07-28-2014DISCHARGE (KAF)132262
10BULO3BULLY CREEK-BULLY CREEK DAM07-28-2014INFLOW (KAF)0068
11BUDW1BUMPING-BUMPING LAKE DAM07-28-2014INFLOW (KAF)2522115
12CHDW1CHELAN-LAKE CHELAN DAM07-28-2014INFLOW (KAF)17722380
13ABOM8CLARK FORK-ABOVE MISSOULA07-28-2014DISCHARGE (KAF)36938097
14DLGM8CLARK FORK-AT DEER LODGE07-28-2014DISCHARGE (KAF)5248109
15SRGM8CLARK FORK-AT ST REGIS07-28-2014DISCHARGE (KAF)811800101
16BELM8CLARK FORK-BELOW MISSOULA07-28-2014DISCHARGE (KAF)646612106
17CABI1CLARK FORK-CABINET GORGE DAM07-28-2014INFLOW (KAF)2824308392
18NOXM8CLARK FORK-NOXON RAPIDS DAM07-28-2014INFLOW (KAF)2560292188
19DRMM8CLARK FORK-NR DRUMMOND07-28-2014DISCHARGE (KAF)140MM
20CLUW1CLE ELUM-CLE ELUM LAKE07-28-2014INFLOW (KAF)9975132
21ORFI1CLEARWATER-AT OROFINO07-28-2014DISCHARGE (KAF)516500103
22SPDI1CLEARWATER-AT SPALDING07-28-2014DISCHARGE (KAF)17671038170
23COEI1COEUR D ALENE-COEUR D ALENE LAKE07-28-2014INFLOW (KAF)23324296
24CIBW1COLUMBIA-AT INTL BOUNDARY07-28-2014DISCHARGE (KAF)18886MM
25BONO3COLUMBIA-BONNEVILLE DAM07-28-2014INFLOW (KAF)28300MM
26CHJW1COLUMBIA-CHIEF JOSEPH DAM07-28-2014INFLOW (KAF)194051999097
27GCDW1COLUMBIA-GRAND COULEE DAM07-28-2014INFLOW (KAF)196692014198
28JDAO3COLUMBIA-JOHN DAY DAM07-28-2014INFLOW (KAF)271932810197
29MCDW1COLUMBIA-MCNARY DAM07-28-2014INFLOW (KAF)266842768296
30PRWW1COLUMBIA-PRIEST RAPIDS DAM07-28-2014INFLOW (KAF)203142092897
31RRHW1COLUMBIA-ROCKY REACH DAM07-28-2014INFLOW (KAF)199952071797
32TDAO3COLUMBIA-THE DALLES DAM07-28-2014INFLOW (KAF)278122889396
33WANW1COLUMBIA-WANAPUM DAM07-28-2014INFLOW (KAF)203072055599
34WELW1COLUMBIA-WELLS DAM07-28-2014INFLOW (KAF)197872022598
35DEDI1DEADWOOD-NEAR LOWMAN07-28-2014INFLOW (KAF)171987
36MODO3DESCHUTES-AT MOODY NR BIGGS07-28-2014DISCHARGE (KAF)1078111297
37ARDW1ENTIAT-NEAR ARDENVOIR07-28-2014DISCHARGE (KAF)263087
38CHEI1FALLS-NEAR CHESTER07-28-2014DISCHARGE (KAF)11282135
39CFMM8FLATHEAD-AT COLUMBIA FALLS07-28-2014DISCHARGE (KAF)11761172100
40KERM8FLATHEAD-KERR DAM07-28-2014INFLOW (KAF)1348139996
41TRYO3GRANDE RONDE-TROY07-28-2014DISCHARGE (KAF)13420067
42REXI1HENRYS FORK-AT REXBURG07-28-2014DISCHARGE (KAF)36838296
43ANTI1HENRYS FORK-AT ST. ANTHONY07-28-2014DISCHARGE (KAF)29232091
44IPDI1HENRYS FORK-ISLAND PARK DAM07-28-2014INFLOW (KAF)10814176
45HODO3HOOD-NEAR TUCKER BRIDGE07-28-2014DISCHARGE (KAF)127103123
46SERO3JOHN DAY-AT SERVICE CK07-28-2014DISCHARGE (KAF)576489
47KADW1KACHESS-KACHESS DAM07-28-2014INFLOW (KAF)2919153
48LAUW1KETTLE-AT LAURIER07-28-2014DISCHARGE (KAF)10714574
49PITW1KLICKITAT-NEAR PITT07-28-2014DISCHARGE (KAF)18819099
50BFEI1KOOTENAI-AT BONNERS FERRY07-28-2014STAGE (FT)MMM
51LEOI1KOOTENAI-AT LEONIA07-28-2014DISCHARGE (KAF)1741214681
52LYDM8KOOTENAI-LIBBY DAM07-28-2014INFLOW (KAF)1214161675
53LWRI1LITTLE WOOD-LITTLE WOOD DAM07-28-2014INFLOW (KAF)91562
54BERO3MALHEUR-AGENCY VALLEY DAM07-28-2014INFLOW (KAF)98110
55VALO3MALHEUR-NEAR VALE07-28-2014DISCHARGE (KAF)32612
56WRMO3MALHEUR-WARM SPRINGS DAM07-28-2014INFLOW (KAF)65113
57MYKO3MCKAY CREEK-NEAR PILOT ROCK07-28-2014DISCHARGE (KAF)21158
58PATW1METHOW-NEAR PATEROS07-28-2014DISCHARGE (KAF)10212284
59WGCM8MF FLATHEAD-NEAR WEST GLACIER07-28-2014DISCHARGE (KAF)287241119
60CLFW1NACHES-NEAR CLIFFDEL07-28-2014DISCHARGE (KAF)638278
61NACW1NACHES-NEAR NACHES07-28-2014DISCHARGE (KAF)128110117
62DWRI1NF CLEARWATER-DWORSHAK DAM07-28-2014INFLOW (KAF)408368111
63FCFM8NF FLATHEAD-NEAR COLUMBIA FALLS07-28-2014DISCHARGE (KAF)293293100
64MONO3NF JOHN DAY-AT MONUMENT07-28-2014DISCHARGE (KAF)5036139
65CSDI1NF PAYETTE-CASCADE DAM07-28-2014INFLOW (KAF)7669110
66TONW1OKANOGAN-NEAR TONASKET07-28-2014DISCHARGE (KAF)26429888
67OWYO3OWYHEE-BELOW OWYHEE DAM07-28-2014INFLOW (KAF)265249
68EMMI1PAYETTE-NEAR EMMETT07-28-2014DISCHARGE (KAF)27839670
69ALFW1PEND OREILLE-ALBENI FALLS DAM07-28-2014INFLOW (KAF)2788338682
70HOPI1PEND OREILLE-PEND OREILLE LAKE NR HOPE07-28-2014LAKE ELEVATION (FT)MMM
71PIHI1PORTNEUF-AT POCATELLO07-28-2014DISCHARGE (KAF)303389
72PRTI1PRIEST-NEAR PRIEST RIVER07-28-2014DISCHARGE (KAF)12516974
73RCCM8ROCK CREEK-NEAR CLINTON07-28-2014DISCHARGE (KAF)576587
74WHBI1SALMON-AT WHITEBIRD07-28-2014DISCHARGE (KAF)1071120189
75ARAI1SF BOISE-ANDERSON RANCH DAM07-28-2014INFLOW (KAF)7670108
76HHWM8SF FLATHEAD-HUNGRY HORSE DAM07-28-2014INFLOW (KAF)262244107
77PLDI1SF SNAKE-PALISADES DAM07-28-2014INFLOW (KAF)1130119095
78SIFI1SNAKE-AB EAGLE ROCK NR IDAHO FALLS07-28-2014DISCHARGE (KAF)11681116105
79AFRI1SNAKE-AMERICAN FALLS RESERVOIR07-28-2014INFLOW (KAF)13511248108
80SNAI1SNAKE-AT BLACKFOOT07-28-2014DISCHARGE (KAF)732580126
81MILI1SNAKE-AT MILNER07-28-2014DISCHARGE (KAF)188170110
82WEII1SNAKE-AT WEISER07-28-2014DISCHARGE (KAF)2559310982
83SWAI1SNAKE-BELOW SWAN FALLS07-28-2014DISCHARGE (KAF)1837213086
84BRNI1SNAKE-BROWNLEE DAM07-28-2014INFLOW (KAF)2697316585
85IHDW1SNAKE-ICE HARBOR DAM07-28-2014INFLOW (KAF)5641576798
86JLKW4SNAKE-JACKSON LAKE AT DAM07-28-2014INFLOW (KAF)13814993
87LGSW1SNAKE-LITTLE GOOSE DAM07-28-2014INFLOW (KAF)5635585496
88LGDW1SNAKE-LOWER GRANITE DAM07-28-2014INFLOW (KAF)5628582097
89LMNW1SNAKE-LOWER MONUMENTAL DAM07-28-2014INFLOW (KAF)5636586296
90ALPW4SNAKE-NEAR ALPINE07-28-2014DISCHARGE (KAF)81385495
91ANAW1SNAKE-NEAR ANATONE07-28-2014DISCHARGE (KAF)3863470082
92BFTI1SNAKE-NEAR BLACKFOOT07-28-2014DISCHARGE (KAF)736587125
93HEII1SNAKE-NEAR HEISE07-28-2014DISCHARGE (KAF)14731458101
94JKSW4SNAKE-NEAR JACKSON07-28-2014DISCHARGE (KAF)66571493
95SHYI1SNAKE-NEAR SHELLEY07-28-2014DISCHARGE (KAF)1071900119
96LLKW1SPOKANE-AT LONGLAKE07-28-2014INFLOW (KAF)618620100
97SPOW1SPOKANE-AT SPOKANE07-28-2014DISCHARGE (KAF)459MM
98SJMI1ST JOE-AT ST MARIES07-28-2014STAGE (FT)MMM
99SATI1ST MARIES-NEAR SANTA07-28-2014DISCHARGE (KAF)171796
100STRM8ST. REGIS-NEAR ST. REGIS07-28-2014DISCHARGE (KAF)3230106
101TNAW1TEANAWAY-BELOW FORKS07-28-2014DISCHARGE (KAF)1310124
102TEAI1TETON-NEAR ST. ANTHONY07-28-2014DISCHARGE (KAF)13715787
103RILW1TIETON-RIMROCK LAKE NEAR RIMROCK07-28-2014INFLOW (KAF)8464131
104PDTO3UMATILLA-AT PENDLETON07-28-2014DISCHARGE (KAF)2115143
105GIBO3UMATILLA-NEAR GIBBON07-28-2014DISCHARGE (KAF)1613122
106UMAO3UMATILLA-NEAR UMATILLA07-28-2014DISCHARGE (KAF)4714326
107TCHW1WALLA WALLA-NEAR TOUCHET07-28-2014DISCHARGE (KAF)1714123
108WSRI1WEISER-NEAR WEISER07-28-2014DISCHARGE (KAF)425084
109PESW1WENATCHEE-AT PESHASTIN07-28-2014DISCHARGE (KAF)295270109
110UNDW1WHITE SALMON-NEAR UNDERWOOD07-28-2014DISCHARGE (KAF)162158103
111RIDI1WILLOW CREEK-RIRIE DAM07-28-2014INFLOW (KAF)3644
112EASW1YAKIMA-AT EASTON07-28-2014DISCHARGE (KAF)12569181
113KIOW1YAKIMA-AT KIONA07-28-2014DISCHARGE (KAF)616476129
114UMTW1YAKIMA-AT UMTANUM07-28-2014DISCHARGE (KAF)616490126
115KEDW1YAKIMA-KEECHELUS LAKE07-28-2014INFLOW (KAF)3929132
116PARW1YAKIMA-NEAR PARKER07-28-2014DISCHARGE (KAF)357179200